143  
ASUS41 KLWX 240910  
RWRLWX  
 
REGIONAL WEATHER ROUNDUP  
NATIONAL WEATHER SERVICE BALTIMORE MD/WASHINGTON DC  
500 AM EDT MON JUN 24 2024  
 
NOTE: "FAIR" INDICATES FEW OR NO CLOUDS BELOW 12,000 FEET  
WITH NO SIGNIFICANT WEATHER AND/OR S TO VISIBILITY
.  
TC=TEMPERATURE CELSIUS  
 
* =NON NWS SITE. STATION DOES NOT REPORT PRECIPITATION (E.G. RAIN,  
SNOW, ETC.), THUNDER, OR FOG.
 
 
DCZ001-MDZ009-015-VAZ040>042-051-053>054-241000-  
WASHINGTON METRO  
 
CITY SKY/WX TMP DP RH WIND PRES REMARKS
 
WASHINGTON NAT CLOUDY 83 67 58 W10 29.68R  
DULLES MOCLDY 77 67 71 W10 29.70R  
ANDREWS AFB CLOUDY 81 68 63 W10 29.66R  
FT BELVOIR MOCLDY 79 69 70 W7 29.67R  
QUANTICO CLOUDY 76 71 85 NW5 N/A  
COLLEGE PARK* MOCLDY 82 67 61 W6 29.68R  
LEESBURG* PTCLDY 77 72 83 W6 29.73R  
MANASSAS* PTCLDY 73 70 90 CALM 29.71R  
GAITHERSBURG* MOCLDY 76 68 76 W5 29.71R  
 

 
 
MDZ006>007-011-014-241000-  
BALTIMORE METRO  
 
CITY SKY/WX TMP DP RH WIND PRES REMARKS
 
BWI AIRPORT MOCLDY 82 67 60 W9 29.66R  
BALT INNER HAR N/A 84 67 56 MISG 29.66S  
MARTIN STATE CLOUDY 82 66 57 W9 29.66S  
ANNAPOLIS MOCLDY 83 69 62 W7 29.66R  
FORT MEADE* CLOUDY 77 68 73 W7 29.70R  
 

 
 
MDZ012-015-019>023-241000-  
MARYLAND EASTERN SHORE  
 
CITY SKY/WX TMP DP RH WIND PRES REMARKS
 
OCEAN CITY NOT AVBL  
SALISBURY CLOUDY 81 73 76 SW12G24 29.67S  
BAY BRIDGE AP* MOCLDY 82 74 78 W8 29.65S  
CAMBRIDGE* N/A 81 79 94 SW5 29.66R  
EASTON* CLOUDY 82 71 69 W7 29.65R  
 

 
 
MDZ017>025-241000-  
SOUTHERN MARYLAND  
 
CITY SKY/WX TMP DP RH WIND PRES REMARKS
 
PATUXENT RIVER MOCLDY 84 72 67 SW10G22 29.68R  
ST INIGOES MOCLDY 81 74 79 SW9 29.67R  
 

 
 
MDZ003>005-241000-  
NORTH CENTRAL MARYLAND  
 
CITY SKY/WX TMP DP RH WIND PRES REMARKS
 
FREDERICK* MOCLDY 79 66 65 W6 29.70R  
HAGERSTOWN APT CLEAR 75 64 68 NW9 29.72R  
WESTMINSTER* NOT AVBL  
 

 
 
MDZ501>502-241000-  
WESTERN MARYLAND  
 
CITY SKY/WX TMP DP RH WIND PRES REMARKS
 
OAKLAND* CLOUDY 63 63 100 NW8 29.85R  
CUMBERLAND* PTCLDY 73 63 71 NW7 29.79R  
 

 
 
VAZ025>031-241000-  
SHENANDOAH VALLEY  
 
CITY SKY/WX TMP DP RH WIND PRES REMARKS
 
WINCHESTER* CLOUDY 72 66 83 SW5 29.74R  
NEW MARKET* MOCLDY 70 69 96 CALM 29.76R  
STAUNTON* PTCLDY 73 66 79 W6 29.79S  
WAYNESBORO* MOCLDY 73 67 82 W5 29.79S  
 

 
 
WVZ021-048>050-054>055-241000-  
EASTERN WEST VIRGINIA PANHANDLE  
 
CITY SKY/WX TMP DP RH WIND PRES REMARKS
 
MARTINSBURG CLEAR 73 64 73 W7 29.72R  
PETERSBURG* FOG 69 69 100 CALM 29.77R VSB 1  
 

 
 
VAZ036>039-050-241000-  
CENTRAL FOOTHILLS  
 
CITY SKY/WX TMP DP RH WIND PRES REMARKS
 
CHARLOTTESVILL PTCLDY 76 66 71 NW5 29.73R  
CULPEPER* PTCLDY 73 71 93 CALM 29.72R  
ORANGE* PTCLDY 73 70 88 CALM 29.74R  
GORDONSVILLE* PTCLDY 76 70 82 CALM 29.71R  
WARRENTON* MOCLDY 74 71 90 CALM 29.71S  
 

 
 
VAZ055>057-241000-  
NORTH AND CENTRAL PIEDMONT  
 
CITY SKY/WX TMP DP RH WIND PRES REMARKS
 
FREDERICKSBRG* MOCLDY 80 71 73 CALM 29.68R  
 

 
 
NCZ024-NYZ072-PAZ021-071-VAZ022-071-241000-  
OTHER REGIONAL OBSERVATIONS  
 
CITY SKY/WX TMP DP RH WIND PRES REMARKS
 
NEW YORK CITY MOCLDY 79 66 64 VRB6 29.59S  
PHILADELPHIA MOCLDY 80 68 66 NW9 29.61F  
PITTSBURGH MOCLDY 67 62 84 NW10 29.81R  
ROANOKE PTCLDY 79 66 64 SW8 29.80R  
RICHMOND PTCLDY 79 73 82 S7 29.70F  
RALEIGH MOCLDY 81 75 82 SW13 29.78R  
 

 
 
ANZ530>537-241000-  
MARINE OBSERVATIONS  
 
STATION/POSITION TIME TEMP WIND PRES
 
AIR SEA DIR/SP/G  
(UTC) (F) (DEG/KT/KT) (MB)  
THOMAS PT LIGHT 0900 81 230/ 10/ 11 1005.5R  
TOLCHESTER 0824 83 83 290/ 11/ 15 1003.9  
GOOSES REEF 0842 76 79 240/ 10/ 16 N/A  
COVE POINT 0824 83 220/ 14/ 19 1004.6  
BALT HARBOR 0824 83 83 290/ 6/ 12 N/A  
BALT KEY BRIDGE 0824 82 290/ 9/ 10 1003.8  
ANNAPOLIS USNA 0824 83 84 240/ 5/ 11 1003.5  
ANNAPOLIS CBIBS 0842 81 80 280/ 10/ 12 N/A  
WASH DC CHANNEL 0824 82 85 260/ 5/ 9 1004.8  
DAHLGREN 0824 82 84 250/ 4/ 6 1003.9  
LEWISETTA 0824 80 81 230/ 12/ 20 1004.8  
SOLOMONS ISLAND 0824 81 79 230/ 11/ 13 1004.7  
PINEY POINT 0824 280/ 11/ 16 N/A  
POTOMAC BUOY 0836 78 80 230/ 16/ 19 N/A  
CAMBRIDGE PIER 0824 83 81 250/ 10/ 13 1004.6  
BISHOPS HEAD 0824 82 81 240/ 20/ 23 1005.1  
CHESAPEAKE CITY 0824 81 84 270/ 3/ 4 1003.3  
 

 
 
 
 
CLICK HERE TO GO TO PREVIOUS BULLETINS.

The Nexlab VA Page
The Nexlab MD Page
The Nexlab WV Page Main Text Page